Change the Weather History Date:

Tuesday, September 17, 2013

  Actual Average (KAQP) Record (KAQP)
Temperature  
Mean Temperature 60 °F -  
Max Temperature 69 °F 69 °F 87 °F (1998)
Min Temperature 51 °F 46 °F 37 °F (2012)
Degree Days  
Heating Degree Days 5    
Growing Degree Days 10 (Base 50)    
Moisture  
Dew Point 56 °F    
Average Humidity 84    
Maximum Humidity 94    
Minimum Humidity 64    
Precipitation  
Precipitation 0.00 in - - ()
Sea Level Pressure  
Sea Level Pressure 30.00 in    
Wind  
Wind Speed 10 mph (SSE)    
Max Wind Speed 17 mph    
Max Gust Speed 23 mph    
Visibility 9 miles    
Events Rain    
Averages and records for this station are not official NWS values.
T = Trace of Precipitation, MM = Missing Value Source: NWS Daily Summary

Daily Weather History Graph

Daily Weather History Graph

Search for Another Location

Airport or City:

Trip Planner

Search our weather history database for the weather conditions in past years. The results will help you decide how hot, cold, wet, or windy it might be!

Date:

Astronomy

Sep. 17, 2013 Rise Set
Actual Time 7:06 AM CDT 7:31 PM CDT
Civil Twilight 6:36 AM CDT 8:00 PM CDT
Nautical Twilight 6:01 AM CDT 8:35 PM CDT
Astronomical Twilight 5:26 AM CDT 9:10 PM CDT
Moon 6:20 PM CDT (9/17) 4:58 AM CDT (9/17)
Length of Visible Light 13h 23m
Length of Day
12h 25m
Waxing Gibbous, 96% of the Moon is Illuminated
Sep 17
Waxing Gibbous
Sep 19
Full
Sep 26
Last Quarter
Oct 4
New
Oct 11
First Quarter

Hourly Weather History & Observations

Time (CDT) Temp. Dew Point Humidity Pressure Visibility Wind Dir Wind Speed Gust Speed Precip Events Conditions
12:13 AM 55.4 °F 51.8 °F 88% 30.17 in 10.0 mi SSE 9.2 mph - N/A   Clear
12:34 AM 55.4 °F 51.8 °F 88% 30.17 in 10.0 mi SSE 10.4 mph - N/A   Clear
12:54 AM 55.4 °F 51.8 °F 88% 30.17 in 10.0 mi SSE 6.9 mph - N/A   Clear
1:13 AM 53.6 °F 51.8 °F 94% 30.17 in 10.0 mi SSE 6.9 mph - N/A   Clear
1:34 AM 53.6 °F 50.0 °F 88% 30.16 in 10.0 mi SSE 6.9 mph - N/A   Clear
1:54 AM 53.6 °F 50.0 °F 88% 30.16 in 10.0 mi SSE 6.9 mph - N/A   Clear
2:13 AM 53.6 °F 50.0 °F 88% 30.16 in 10.0 mi SSE 6.9 mph - N/A   Clear
2:34 AM 53.6 °F 50.0 °F 88% 30.15 in 10.0 mi SSE 6.9 mph - N/A   Clear
2:53 AM 53.6 °F 50.0 °F 88% 30.15 in 10.0 mi SSE 6.9 mph - N/A   Clear
3:14 AM 53.6 °F 50.0 °F 88% 30.14 in 10.0 mi SE 6.9 mph - N/A   Clear
3:34 AM 53.6 °F 50.0 °F 88% 30.14 in 10.0 mi SE 6.9 mph - N/A   Clear
3:53 AM 53.6 °F 50.0 °F 88% 30.13 in 10.0 mi SSE 6.9 mph - N/A   Clear
4:14 AM 53.6 °F 50.0 °F 88% 30.12 in 10.0 mi SSE 8.1 mph - N/A   Clear
4:33 AM 53.6 °F 50.0 °F 88% 30.11 in 10.0 mi SE 8.1 mph - N/A   Clear
4:54 AM 51.8 °F 48.2 °F 88% 30.10 in 10.0 mi SE 5.8 mph - N/A   Scattered Clouds
5:13 AM 53.6 °F 50.0 °F 88% 30.09 in 10.0 mi SE 9.2 mph - N/A   Mostly Cloudy
5:34 AM 53.6 °F 51.8 °F 94% 30.09 in 10.0 mi SE 9.2 mph - N/A   Overcast
5:53 AM 53.6 °F 51.8 °F 94% 30.08 in 10.0 mi SE 8.1 mph - N/A   Overcast
6:13 AM 55.4 °F 51.8 °F 88% 30.08 in 10.0 mi SE 9.2 mph - N/A   Overcast
6:34 AM 55.4 °F 51.8 °F 88% 30.08 in 10.0 mi SE 10.4 mph - N/A   Overcast
6:53 AM 55.4 °F 51.8 °F 88% 30.07 in 10.0 mi SSE 10.4 mph - N/A   Overcast
7:13 AM 55.4 °F 51.8 °F 88% 30.07 in 10.0 mi SE 9.2 mph - N/A   Mostly Cloudy
7:34 AM 55.4 °F 51.8 °F 88% 30.07 in 10.0 mi SE 9.2 mph - N/A   Overcast
7:54 AM 55.4 °F 51.8 °F 88% 30.07 in 10.0 mi SE 6.9 mph 16.1 mph N/A   Overcast
8:13 AM 57.2 °F 53.6 °F 88% 30.07 in 10.0 mi SSE 9.2 mph - N/A   Overcast
8:34 AM 57.2 °F 53.6 °F 88% 30.06 in 10.0 mi SSE 10.4 mph - N/A   Overcast
8:54 AM 57.2 °F 53.6 °F 88% 30.05 in 10.0 mi SE 10.4 mph - N/A   Mostly Cloudy
9:13 AM 59.0 °F 55.4 °F 88% 30.05 in 10.0 mi SE 9.2 mph - N/A   Mostly Cloudy
9:34 AM 60.8 °F 55.4 °F 82% 30.04 in 10.0 mi SE 8.1 mph - N/A   Scattered Clouds
9:54 AM 60.8 °F 55.4 °F 82% 30.03 in 10.0 mi SSE 13.8 mph - N/A   Clear
10:13 AM 60.8 °F 55.4 °F 82% 30.03 in 10.0 mi SSE 9.2 mph - N/A   Scattered Clouds
10:34 AM 62.6 °F 57.2 °F 82% 30.02 in 10.0 mi SSE 12.7 mph 16.1 mph N/A   Scattered Clouds
10:53 AM 62.6 °F 57.2 °F 82% 30.02 in 10.0 mi SSE 13.8 mph 19.6 mph N/A   Scattered Clouds
11:14 AM 64.4 °F 57.2 °F 77% 30.01 in 10.0 mi SSE 12.7 mph 19.6 mph N/A   Mostly Cloudy
11:34 AM 64.4 °F 57.2 °F 77% 30.01 in 10.0 mi South 13.8 mph 20.7 mph N/A   Mostly Cloudy
11:53 AM 64.4 °F 57.2 °F 77% 30.01 in 10.0 mi SSE 15.0 mph 20.7 mph N/A   Mostly Cloudy
12:14 PM 66.2 °F 57.2 °F 73% 30.00 in 10.0 mi South 15.0 mph 19.6 mph N/A   Mostly Cloudy
12:34 PM 66.2 °F 57.2 °F 73% 29.99 in 10.0 mi South 13.8 mph 23.0 mph N/A   Scattered Clouds
12:53 PM 68.0 °F 57.2 °F 68% 29.98 in 10.0 mi SSE 13.8 mph 18.4 mph N/A   Scattered Clouds
1:14 PM 66.2 °F 57.2 °F 73% 29.98 in 10.0 mi SSE 16.1 mph 23.0 mph N/A   Mostly Cloudy
1:34 PM 66.2 °F 57.2 °F 73% 29.97 in 10.0 mi SSE 17.3 mph 21.9 mph N/A   Mostly Cloudy
1:53 PM 69.8 °F 57.2 °F 64% 29.96 in 10.0 mi SSE 15.0 mph 21.9 mph N/A   Mostly Cloudy
2:14 PM 68.0 °F 57.2 °F 68% 29.95 in 10.0 mi SSE 17.3 mph 21.9 mph N/A   Overcast
2:34 PM 68.0 °F 57.2 °F 68% 29.95 in 10.0 mi South 15.0 mph 20.7 mph N/A   Mostly Cloudy
2:53 PM 68.0 °F 57.2 °F 68% 29.95 in 10.0 mi South 11.5 mph 18.4 mph N/A   Mostly Cloudy
3:14 PM 68.0 °F 57.2 °F 68% 29.93 in 10.0 mi SSE 13.8 mph 18.4 mph N/A   Overcast
3:33 PM 68.0 °F 59.0 °F 73% 29.92 in 10.0 mi SSE 11.5 mph 18.4 mph N/A   Overcast
3:54 PM 68.0 °F 59.0 °F 73% 29.92 in 10.0 mi South 12.7 mph 20.7 mph N/A   Overcast
4:14 PM 66.2 °F 59.0 °F 78% 29.92 in 10.0 mi SSE 11.5 mph 17.3 mph N/A   Overcast
4:33 PM 66.2 °F 57.2 °F 73% 29.91 in 10.0 mi SSE 11.5 mph 19.6 mph N/A   Mostly Cloudy
4:53 PM 66.2 °F 59.0 °F 78% 29.90 in 10.0 mi SSE 12.7 mph - N/A   Mostly Cloudy
5:14 PM 66.2 °F 59.0 °F 78% 29.90 in 10.0 mi SSE 12.7 mph 16.1 mph N/A   Scattered Clouds
5:33 PM 66.2 °F 59.0 °F 78% 29.90 in 10.0 mi SSE 13.8 mph - N/A   Scattered Clouds
5:54 PM 66.2 °F 59.0 °F 78% 29.90 in 7.0 mi SE 15.0 mph - N/A   Mostly Cloudy
6:13 PM 64.4 °F 59.0 °F 83% 29.89 in 4.0 mi SE 13.8 mph - N/A Rain Light Rain
6:33 PM 62.6 °F 59.0 °F 88% 29.89 in 7.0 mi SE 13.8 mph - N/A   Overcast
6:54 PM 62.6 °F 59.0 °F 88% 29.89 in 5.0 mi SSE 13.8 mph - N/A   Overcast
7:13 PM 62.6 °F 59.0 °F 88% 29.89 in 7.0 mi SSE 11.5 mph - N/A   Overcast
7:33 PM 62.6 °F 59.0 °F 88% 29.88 in 7.0 mi SSE 11.5 mph 18.4 mph N/A   Overcast
7:54 PM 62.6 °F 59.0 °F 88% 29.87 in 7.0 mi SSE 12.7 mph 18.4 mph N/A   Overcast
8:13 PM 62.6 °F 59.0 °F 88% 29.88 in 7.0 mi SSE 12.7 mph 18.4 mph N/A   Overcast
8:33 PM 62.6 °F 59.0 °F 88% 29.88 in 7.0 mi SSE 11.5 mph 18.4 mph N/A   Overcast
8:54 PM 62.6 °F 59.0 °F 88% 29.88 in 4.0 mi SE 11.5 mph - N/A   Overcast
9:13 PM 62.6 °F 59.0 °F 88% 29.88 in 3.0 mi SE 10.4 mph 16.1 mph N/A   Scattered Clouds
9:34 PM 62.6 °F 59.0 °F 88% 29.88 in 2.5 mi SSE 10.4 mph 17.3 mph N/A   Scattered Clouds
9:54 PM 60.8 °F 59.0 °F 94% 29.88 in 3.0 mi SSE 12.7 mph - N/A   Mist
10:13 PM 62.6 °F 60.8 °F 94% 29.88 in 4.0 mi SSE 11.5 mph - N/A   Clear
10:34 PM 62.6 °F 60.8 °F 94% 29.88 in 4.0 mi SSE 9.2 mph - N/A   Clear
10:53 PM 62.6 °F 60.8 °F 94% 29.87 in 5.0 mi SSE 10.4 mph - N/A   Scattered Clouds
11:13 PM 62.6 °F 59.0 °F 88% 29.86 in 5.0 mi SSE 11.5 mph - N/A   Mostly Cloudy
11:34 PM 62.6 °F 59.0 °F 88% 29.85 in 7.0 mi SSE 8.1 mph 16.1 mph N/A   Mostly Cloudy
11:53 PM 62.6 °F 59.0 °F 88% 29.85 in 7.0 mi SSE 9.2 mph - N/A   Scattered Clouds